Location: Asheville, NC
(35.6000°N, 82.5500°W)
Time: 14:25:55
(UTC-04:00)

Vanguard 3 - Pass Details

Date: 09 December 2017
Orbit: 508 x 3264 km, 33.3° (Epoch: 24 April)

Event Time Altitude Azimuth Distance (km) Brightness Sun altitude
Rises 16:31:27 0° 269° (W) 2,636 10.9 7.1°
Reaches altitude 10° 16:33:23 10° 266° (W) 1,828 10.2 6.8°
Maximum altitude 16:37:20 66° 184° (S) 737 7.3 6.1°
Drops below altitude 10° 16:43:14 10° 103° (ESE) 2,706 9.4 5.1°
Sets 16:46:40 0° 101° (E) 4,065 10.3 4.5°
